RH
34 28 25 26 21 18 16 16 17 16 15 14 14 14 13 12 13 12 12 9 7 9 9 8 8 9 9 10 12 16 22 26 31 34 32 29 24 21 20 21 22 23 25
21 19 25 24 20 20 20 21 22 19 17 15 15 14 13 13 14 13 12 8 10 11 9 9 8 8 9 11 15 21 27 30 33 36 35 34 34 33 34 36 37 37 37
21 26 28 26 24 21 19 19 18 17 16 14 14 13 13 15 14 14 10 10 12 11 10 9 8 8 10 16 22 28 32 34 35 36 36 35 34 36 36 34 31 29 27
21 26 28 26 23 20 20 20 16 14 14 14 14 13 14 15 16 12 10 13 13 11 10 9 10 10 11 15 22 30 35 38 39 39 37 34 31 29 27 27 25 23 22
23 28 30 27 23 24 21 16 15 14 14 13 13 15 17 16 12 11 14 15 13 12 12 12 12 12 14 21 30 36 39 39 38 34 32 34 38 38 34 31 34 35 33
27 31 28 24 22 20 20 17 16 15 15 15 16 17 16 13 13 16 17 15 14 15 16 16 16 16 21 29 35 37 36 34 35 38 41 43 43 42 40 39 37 35 32
20 25 24 22 24 24 22 20 18 17 15 17 17 15 15 16 19 19 18 17 18 19 20 21 20 21 28 34 35 35 37 41 44 47 49 48 43 35 27 24 27 27 28
22 23 24 27 24 20 17 17 15 16 18 16 16 18 20 21 21 20 20 21 22 23 25 26 27 31 35 38 40 42 45 48 51 52 48 41 34 31 28 25 21 24 21
24 27 22 16 14 16 16 16 16 14 15 17 20 22 23 24 23 24 24 25 26 28 32 35 39 41 43 44 46 48 50 53 55 54 54 52 49 40 31 24 21 22 23
26 21 16 15 15 14 13 14 16 18 20 22 23 24 25 25 26 27 28 30 34 37 41 44 48 50 50 49 49 50 52 55 59 61 61 58 52 42 35 33 33 33 31
16 15 13 11 11 10 11 12 14 14 16 19 22 25 27 29 31 32 35 39 44 48 50 52 55 56 56 54 53 53 54 58 72 86 88 85 85 91 83 53 44 44 39
13 12 11 11 15 22 26 26 25 25 25 24 24 26 31 34 36 39 42 47 51 55 56 57 59 60 59 58 57 62 81 93 93 86 87 93 86 74 62 50 37 27 17
14 15 22 28 29 31 32 32 32 32 34 35 36 35 35 39 42 46 50 55 59 61 61 60 60 61 61 60 80 96 90 82 83 87 84 73 56 50 42 30 19 11 7
30 30 31 31 28 24 24 25 26 30 34 36 40 44 47 47 49 54 60 64 67 66 64 62 61 61 68 89 96 82 81 83 85 80 66 60 53 37 24 16 9 6 6
31 27 24 21 19 19 20 21 26 32 37 42 43 43 44 48 54 59 66 72 73 71 67 62 69 88 96 97 89 86 83 82 78 71 55 36 31 24 14 10 7 6 6
30 28 22 21 23 26 29 33 37 38 38 40 42 43 46 50 60 66 71 78 78 74 78 86 91 96 96 94 92 87 78 66 46 36 35 30 20 11 9 8 8 8 9
29 24 27 31 34 36 36 34 33 36 41 44 46 49 55 65 72 74 79 84 87 89 91 96 96 94 94 93 85 72 47 37 38 38 34 23 12 10 10 11 11 12 13
27 31 34 36 32 28 29 30 35 39 43 46 52 61 70 77 81 85 89 93 95 98 96 95 92 87 89 86 60 44 42 44 44 37 27 17 11 12 13 12 12 14 18
33 36 33 28 27 28 28 26 26 29 33 42 55 67 76 80 84 89 94 98 95 95 95 94 90 89 74 56 48 47 47 48 41 27 18 14 12 14 16 16 18 20 17
37 32 28 27 28 27 25 25 26 29 34 43 57 69 77 80 82 84 93 96 94 89 87 86 91 65 46 49 48 48 45 34 22 17 16 16 16 16 20 21 24 21 20
30 27 27 29 29 28 28 28 30 32 35 45 58 67 73 74 77 84 93 92 90 86 86 82 60 48 50 49 44 28 18 17 17 18 18 18 18 21 24 26 27 27 28
28 28 30 32 32 32 32 32 33 36 41 48 52 56 60 65 73 76 82 86 89 80 64 54 53 53 43 22 15 16 20 23 23 21 19 18 21 26 29 30 30 33 33
30 31 35 36 37 36 34 37 41 44 46 50 54 58 60 67 74 71 66 62 60 58 52 35 16 12 13 16 22 26 27 27 24 21 21 22 25 32 33 34 36 33 37
32 36 39 41 40 39 41 42 44 49 50 51 53 55 56 56 58 56 46 25 12 10 11 13 15 16 17 21 27 30 29 28 30 30 28 27 32 37 35 29 33 44 51
36 40 43 43 42 41 43 46 49 51 52 53 54 48 31 17 10 8 9 14 23 30 34 39 42 40 36 33 37 37 33 34 34 34 32 31 31 31 33 39 51 62 61
41 45 44 42 44 47 49 52 53 52 53 48 23 10 8 8 10 16 18 22 23 28 40 53 72 78 84 78 68 61 55 52 50 48 45 44 46 53 62 66 68 67 60
Wind_Speed
20 19 20 20 18 17 16 16 17 19 20 20 21 21 24 25 26 26 25 25 25 25 26 27 28 28 29 29 28 28 27 28 25 21 25 24 23 21 20 19 18 19 20
21 21 20 18 17 17 17 17 19 20 21 21 22 24 26 27 27 26 25 25 25 26 27 28 28 28 29 29 29 27 26 27 27 24 22 22 22 22 21 21 21 21 21
21 21 19 18 18 17 18 19 20 20 21 21 24 26 28 28 27 26 25 24 24 26 27 26 27 27 27 28 27 27 26 26 27 26 25 25 24 23 23 23 23 22 23
25 24 23 21 18 19 20 19 20 20 20 23 27 28 29 28 26 25 24 24 25 26 27 28 29 29 29 29 29 28 27 26 25 25 25 25 26 26 24 20 22 23 23
24 24 20 19 20 20 18 18 19 21 24 27 28 28 27 26 25 23 24 25 25 26 27 28 29 29 30 29 29 28 27 26 26 25 24 24 26 28 30 28 23 24 26
24 23 22 21 18 17 18 20 22 24 26 26 26 27 26 24 24 24 25 25 26 26 27 28 29 30 30 29 28 27 26 26 26 27 29 30 31 31 32 34 31 28 26
23 21 19 19 19 21 23 24 25 25 24 25 24 23 24 24 24 25 26 26 26 26 27 28 29 29 28 27 26 26 26 27 28 29 30 31 32 32 33 34 36 35 29
20 18 19 20 21 21 22 22 21 22 21 21 22 23 24 25 25 25 25 25 26 27 28 29 29 28 27 27 27 28 29 29 30 30 30 30 32 33 35 37 38 39 36
20 18 17 16 17 17 17 17 16 18 21 22 23 24 24 25 25 26 26 27 28 28 28 28 28 28 28 29 29 30 30 30 30 31 32 32 34 35 36 37 39 41 42
18 16 16 14 13 12 14 17 20 21 22 23 24 25 26 27 27 28 28 28 29 29 28 28 28 29 30 31 32 32 33 33 34 34 34 34 34 35 37 38 40 42 45
16 14 12 12 14 17 18 20 21 22 24 25 26 27 28 28 28 29 29 28 28 28 28 28 29 30 31 32 33 34 35 35 38 40 39 38 40 40 40 42 44 45 47
12 11 11 13 14 14 16 17 19 20 22 24 26 28 28 29 29 30 30 29 30 30 30 31 31 32 33 35 35 38 42 43 42 39 38 39 39 38 39 40 42 43 44
9 10 10 11 11 12 14 17 20 23 25 25 27 28 29 30 31 31 31 31 31 32 32 33 34 35 36 37 42 44 42 39 35 36 36 34 36 37 39 41 41 41 40
4 5 7 9 13 16 19 21 23 25 26 27 27 27 27 28 30 31 31 32 32 33 33 35 36 36 38 44 43 42 39 36 35 33 34 36 39 41 42 41 39 39 39
4 6 10 14 17 19 21 23 24 25 26 27 27 28 28 29 30 31 32 32 32 33 34 35 36 41 44 42 42 39 35 33 33 34 37 40 42 42 41 42 39 38 38
8 13 18 20 20 20 22 24 25 27 29 30 31 31 30 31 30 29 30 31 32 33 35 39 41 42 42 40 35 34 34 34 36 38 41 42 41 39 39 39 39 39 39
16 20 21 22 23 24 25 25 25 26 26 27 29 30 30 28 27 26 27 29 32 36 37 39 39 40 38 31 33 35 38 40 42 44 45 43 40 39 40 39 38 38 37
23 23 23 23 24 23 23 23 23 23 24 26 27 26 26 25 25 26 28 30 33 36 37 38 39 35 32 33 36 41 45 47 48 47 46 45 41 39 41 41 40 39 37
24 23 22 22 22 23 24 24 25 26 26 26 25 24 25 26 27 28 30 31 34 36 38 39 35 36 37 39 43 48 51 53 51 48 45 42 42 40 40 41 41 41 38
23 22 21 22 21 21 21 23 24 24 24 23 22 23 25 26 28 30 32 34 37 40 40 37 38 42 45 48 52 54 55 54 50 47 43 40 41 41 41 41 40 41 40
21 21 20 20 20 20 21 22 22 21 22 22 22 23 25 28 30 32 35 37 39 39 40 44 47 50 54 57 56 53 51 49 47 45 42 39 40 40 40 39 40 41 44
20 20 20 20 20 21 22 22 22 22 22 22 23 25 28 31 33 35 37 39 41 46 49 53 56 58 57 54 51 48 45 43 44 43 41 40 40 39 39 39 40 42 45
20 20 20 20 20 21 22 22 22 23 23 24 26 29 31 33 35 39 42 46 49 53 57 59 58 56 52 47 42 41 41 40 41 41 41 41 41 40 40 41 42 44 44
20 20 20 20 21 22 23 24 25 25 26 28 30 33 35 38 40 44 47 50 51 53 53 54 53 52 49 45 41 39 38 39 41 42 42 42 42 42 43 44 43 43 42
19 20 20 21 22 24 25 25 26 28 30 33 36 38 40 42 44 45 47 49 50 53 56 56 55 53 52 47 45 44 43 43 44 43 42 41 41 42 44 44 43 40 38
19 20 21 23 24 25 26 27 29 31 35 38 39 40 42 43 44 46 48 47 48 48 48 48 49 50 49 48 46 45 44 43 43 43 44 44 44 43 43 42 38 36 36
Wind_Direction
218 220 224 230 235 239 243 250 260 267 275 281 286 290 296 301 304 303 302 300 302 305 308 310 312 314 316 316 316 314 312 310 308 304 302 301 300 297 296 290 285 282 281
221 225 229 234 240 244 249 257 263 267 274 281 286 291 296 298 299 300 299 300 303 306 309 312 314 315 315 314 313 312 309 307 305 303 297 294 295 294 291 288 288 285 282
224 228 232 237 243 251 257 261 265 271 278 283 288 290 292 295 297 298 298 298 302 305 308 308 309 311 310 309 309 308 307 305 304 303 300 296 290 288 289 290 289 287 285
222 224 228 236 246 251 258 266 272 278 282 284 285 288 292 295 296 295 295 299 303 305 305 306 308 309 309 308 307 304 302 302 300 300 299 298 296 294 286 286 289 288 287
226 232 237 244 248 253 260 267 274 278 281 284 286 291 293 290 290 294 297 298 299 301 303 306 308 309 308 306 304 303 302 301 299 298 298 297 298 298 295 291 285 286 289
228 236 242 247 256 263 267 271 275 279 280 283 286 283 284 291 293 293 294 297 299 302 305 308 310 310 309 307 306 305 304 304 303 303 303 302 301 298 297 294 293 288 283
232 238 246 252 259 266 271 276 278 280 281 279 282 289 289 287 288 291 294 296 299 301 303 306 308 308 306 304 302 301 300 301 301 302 303 303 302 302 302 302 299 298 290
233 238 248 255 260 265 268 272 274 274 280 285 282 280 281 285 288 290 291 293 295 297 300 304 306 305 304 302 301 301 301 301 301 302 302 302 301 301 300 300 299 297 297
233 235 244 246 254 261 263 265 273 276 274 276 279 281 282 283 285 287 290 292 294 297 301 304 306 305 304 303 302 300 299 299 299 300 300 299 299 300 300 299 298 298 297
215 227 240 240 242 251 263 269 271 275 278 280 281 281 282 284 286 288 290 292 296 298 301 303 303 303 303 301 299 298 298 297 297 298 299 300 299 298 298 298 299 299 298
204 206 216 238 258 269 274 278 279 280 279 281 282 283 284 285 287 289 291 293 295 296 296 297 297 298 298 297 297 297 296 296 296 296 296 297 297 297 296 296 297 297 295
194 222 248 261 269 275 279 280 282 285 286 285 284 283 285 287 289 290 291 292 292 292 291 291 292 293 294 295 296 296 299 300 297 297 297 298 298 298 298 297 297 296 295
238 254 265 274 283 291 296 297 295 292 291 292 291 291 290 289 289 289 288 288 288 287 288 290 292 294 295 296 299 306 301 301 301 299 299 299 300 301 300 299 297 295 294
249 274 292 304 306 300 295 293 294 295 295 295 294 294 293 292 289 287 286 285 285 287 289 292 294 296 296 298 304 302 300 299 300 300 302 303 303 303 300 298 297 295 294
294 305 306 305 303 302 301 300 299 297 296 297 297 296 295 293 290 287 285 285 288 290 292 293 293 293 300 300 299 298 299 300 301 304 305 304 303 302 300 298 296 295 296
293 306 311 312 308 301 296 297 295 296 297 294 293 293 295 295 293 291 290 289 290 291 290 291 296 299 299 301 298 298 300 302 303 302 300 300 299 297 294 293 293 294 296
311 315 311 306 305 307 308 306 303 298 293 293 297 297 295 295 297 296 293 290 288 290 295 296 297 297 298 296 295 296 298 300 301 301 300 298 296 293 291 290 291 294 296
309 307 310 312 314 314 312 312 315 315 311 304 298 294 294 295 295 293 290 289 291 293 294 295 296 293 292 293 295 296 297 299 302 302 299 297 296 294 292 293 293 292 293
307 311 313 316 316 319 324 322 318 312 306 300 297 296 297 298 296 293 291 293 293 294 295 297 294 293 292 294 296 298 299 300 301 298 294 293 293 293 292 292 292 292 294
311 313 316 319 322 320 314 312 310 307 305 304 302 301 299 297 297 297 296 294 294 296 296 294 290 290 293 298 298 299 299 298 297 293 292 292 292 291 291 292 293 295 300
309 314 317 317 312 310 310 306 303 303 303 302 301 301 301 302 301 298 296 296 296 295 294 292 293 294 298 299 300 299 297 295 292 291 291 290 289 290 290 290 292 298 301
315 314 310 307 308 307 305 305 305 303 303 305 306 305 303 302 300 300 299 298 296 296 296 295 296 297 299 299 299 296 294 292 291 292 293 292 292 291 289 290 294 298 299
306 304 303 302 303 305 305 303 302 303 307 308 308 306 304 302 302 300 299 299 298 298 298 299 300 300 300 299 297 293 292 291 290 292 293 293 291 290 290 292 294 295 299
300 299 297 298 300 303 303 304 305 307 308 308 306 305 305 303 302 301 301 302 303 303 303 303 302 301 299 298 295 291 288 288 290 292 291 290 289 289 289 292 296 297 296
293 291 292 297 303 307 307 306 306 307 307 308 308 308 307 306 307 308 309 310 310 308 306 305 302 300 297 296 295 294 293 294 293 294 292 291 290 291 293 294 296 296 296
290 291 296 302 306 306 305 306 307 307 308 309 309 309 309 311 312 312 311 312 312 312 311 308 304 301 299 298 296 295 294 293 292 291 292 292 294 295 295 297 297 298 299